User: anonymous   Login
Location: Fort Wayne
(41.1310°N, 85.1290°W)
Time: 12:26:38
(UTC-04:00)
Language:

Tiros 1 despin weight - Orbit

View from above orbital plane
View from above orbital plane
View from above satellite
View from above satellite

Ground track
Ground track

The orbit data is extracted from the following two-line orbital elements,

1 00115U 60002D   15143.49626174  .00000531  00000-0  93092-4 0  9994
2 00115 048.1655 172.7425 0035262 011.3718 348.7983 14.82066240938088
Epoch (UTC): 23 May 2015 11:54:37
Eccentricity: 0.0035262
inclination: 48.1655°
perigee height: 598 km
apogee height: 647 km
right ascension of ascending node: 172.7425°
argument of perigee: 11.3718°
revolutions per day: 14.82066240
mean anomaly at epoch: 348.7983°
orbit number at epoch: 93808

The dashed part of the orbit path shows where the satellite is in the earth's shadow,  

DLR